Вернуться в каталог

STARLINK-32089

АктивенСвязьVLEO
NORAD 59687·PAYLOAD·🇺🇸 United States

Запущен May 8, 2024 с Cape Canaveral Space Force Station

Loading…

Ближайшие Пролёты (ближайшие 24 часа)

TLE

СвежийSource: CelesTrak SupGP

Эпоха: Sep 15, 2026, 01:58 UTC

1 59687C 24086F   26258.08243056 -.00006481  00000+0 -23477-3 0  2580
2 59687  43.0003  70.1260 0001503 273.9458 294.4639 15.27578437    17

Отслеживайте STARLINK-32089 в реальном времени с AllMySat

Download on the App Store